Gogerbank, United Kingdom

11:26 AM GMT on February 24, 2017 (GMT +0000)
Edinburgh Airport

Weather History for EGPH - September, 2013

Change the Weather History Date:

Thursday, September 19, 2013

  Actual Average Record
Temperature  
Mean Temperature 46 °F -  
Max Temperature 51 °F 58 °F 69 °F (1998)
Min Temperature 41 °F 44 °F 37 °F (1997)
Degree Days  
Heating Degree Days 19    
Moisture  
Dew Point 47 °F    
Average Humidity 94    
Maximum Humidity 100    
Minimum Humidity 87    
Precipitation  
Precipitation 0.00 in 0.09 in - ()
Sea Level Pressure  
Sea Level Pressure 29.62 in    
Wind  
Wind Speed 6 mph ()    
Max Wind Speed 12 mph    
Max Gust Speed -    
Visibility 4.9 miles    
Events Rain    
Averages and records for this station are not official NWS values.
T = Trace of Precipitation, MM = Missing Value Source: Averaged Metar Reports

Daily Weather History Graph

Daily Weather History Graph

Search for Another Location

Airport or City:

Trip Planner

Search our weather history database for the weather conditions in past years. The results will help you decide how hot, cold, wet, or windy it might be!

Date:

Astronomy

Sep. 19, 2013 Rise Set
Actual Time 6:52 AM BST 7:20 PM BST
Civil Twilight 6:15 AM BST 7:57 PM BST
Nautical Twilight 5:30 AM BST 8:41 PM BST
Astronomical Twilight 4:42 AM BST 9:29 PM BST
Moon 6:57 PM BST (9/19) 6:53 AM BST (9/19)
Length of Visible Light 13h 41m
Length of Day
12h 27m
Full, 100% of the Moon is Illuminated
Sep 19
Full
Sep 19
Full
Sep 27
Last Quarter
Oct 5
New
Oct 12
First Quarter

Hourly Weather History & Observations

Time (BST) Temp. Windchill Dew Point Humidity Pressure Visibility Wind Dir Wind Speed Gust Speed Precip Events Conditions
12:20 AM 44.6 °F 39.2 °F 42.8 °F 93% 29.74 in - WSW 10.4 mph - N/A   Clear
12:50 AM 44.6 °F 38.8 °F 42.8 °F 93% 29.71 in - WSW 11.5 mph - N/A   Clear
1:20 AM 44.6 °F 39.7 °F 42.8 °F 93% 29.71 in - WSW 9.2 mph - N/A   Clear
1:50 AM 44.6 °F 40.2 °F 42.8 °F 93% 29.71 in 6.2 mi West 8.1 mph - N/A   Unknown
2:20 AM 41.0 °F 37.1 °F 39.2 °F 93% 29.71 in - WSW 5.8 mph - N/A   Clear
2:50 AM 44.6 °F 40.2 °F 42.8 °F 93% 29.71 in - WSW 8.1 mph - N/A   Clear
3:20 AM 44.6 °F 40.7 °F 42.8 °F 93% 29.71 in 6.2 mi WSW 6.9 mph - N/A   Scattered Clouds
3:50 AM 44.6 °F 39.7 °F 44.6 °F 100% 29.71 in 6.2 mi SW 9.2 mph - N/A   Partly Cloudy
4:20 AM 44.6 °F 42.2 °F 42.8 °F 93% 29.68 in 6.2 mi SW 4.6 mph - N/A   Partly Cloudy
4:50 AM 44.6 °F 41.4 °F 42.8 °F 93% 29.68 in - WSW 5.8 mph - N/A   Clear
5:20 AM 46.4 °F 43.5 °F 44.6 °F 93% 29.68 in - WSW 5.8 mph - N/A   Clear
5:50 AM 46.4 °F 41.5 °F 44.6 °F 93% 29.68 in 6.2 mi SW 10.4 mph - N/A   Mostly Cloudy
6:20 AM 48.2 °F - 44.6 °F 87% 29.65 in 6.2 mi SSW 6.9 mph - N/A   Scattered Clouds
6:50 AM 48.2 °F - 44.6 °F 87% 29.62 in 6.2 mi South 5.8 mph - N/A   Mostly Cloudy
7:20 AM 48.2 °F - 44.6 °F 87% 29.62 in 6.2 mi South 6.9 mph - N/A   Scattered Clouds
7:50 AM 48.2 °F - 44.6 °F 87% 29.59 in 6.2 mi SE 5.8 mph - N/A Rain Light Rain
8:20 AM 46.4 °F 44.3 °F 44.6 °F 93% 29.62 in 6.2 mi SW 4.6 mph - N/A Rain Light Rain
8:50 AM 46.4 °F 43.5 °F 46.4 °F 100% 29.62 in 5.6 mi SW 5.8 mph - N/A Rain Light Rain
9:20 AM 48.2 °F - 44.6 °F 87% 29.59 in 6.2 mi Variable 3.5 mph - N/A Rain Light Rain
9:50 AM 48.2 °F - 44.6 °F 87% 29.59 in 6.2 mi ESE 4.6 mph - N/A Rain Light Rain
10:20 AM 48.2 °F - 46.4 °F 93% 29.56 in 3.7 mi ENE 5.8 mph - N/A Rain Light Rain
10:50 AM 48.2 °F - 46.4 °F 93% 29.56 in 3.1 mi East 6.9 mph - N/A Rain Light Rain
11:20 AM 48.2 °F - 48.2 °F 100% 29.53 in 4.3 mi East 8.1 mph - N/A Rain Light Rain
11:50 AM 48.2 °F - 48.2 °F 100% 29.53 in 2.5 mi ENE 10.4 mph - N/A Rain Light Rain
12:20 PM 48.2 °F - 48.2 °F 100% 29.53 in 2.5 mi ENE 9.2 mph - N/A Rain Rain
12:50 PM 50.0 °F - 48.2 °F 94% 29.50 in 3.1 mi ENE 11.5 mph - N/A   Light Drizzle
1:20 PM 50.0 °F - 50.0 °F 100% 29.50 in 2.8 mi ENE 9.2 mph - N/A   Light Drizzle
1:50 PM 51.8 °F - 50.0 °F 94% 29.50 in 2.5 mi ENE 6.9 mph - N/A   Light Drizzle
2:20 PM 51.8 °F - 50.0 °F 94% 29.50 in 3.1 mi NE 6.9 mph - N/A   Light Drizzle
2:50 PM 51.8 °F - 50.0 °F 94% 29.53 in 5.0 mi NE 8.1 mph - N/A   Overcast
3:20 PM 51.8 °F - 50.0 °F 94% 29.53 in 6.2 mi NE 5.8 mph - N/A   Overcast
3:50 PM 51.8 °F - 50.0 °F 94% 29.53 in 6.2 mi NNE 5.8 mph - N/A   Overcast
4:20 PM 51.8 °F - 50.0 °F 94% 29.56 in - NNE 4.6 mph - N/A   Light Drizzle
4:50 PM 51.8 °F - 50.0 °F 94% 29.56 in - Variable 2.3 mph - N/A   Light Drizzle
5:20 PM 51.8 °F - 50.0 °F 94% 29.56 in 5.6 mi Calm Calm - N/A   Light Drizzle
5:50 PM 51.8 °F - 50.0 °F 94% 29.56 in 6.2 mi Calm Calm - N/A   Mostly Cloudy
6:20 PM 51.8 °F - 50.0 °F 94% 29.59 in 6.2 mi NNE 2.3 mph - N/A   Overcast
6:50 PM 51.8 °F - 50.0 °F 94% 29.59 in 6.2 mi NE 3.5 mph - N/A   Mostly Cloudy
7:20 PM 51.8 °F - 50.0 °F 94% 29.62 in 3.1 mi NE 2.3 mph - N/A   Light Drizzle
7:50 PM 51.8 °F - 50.0 °F 94% 29.62 in 3.7 mi Variable 2.3 mph - N/A   Light Drizzle
8:20 PM 51.8 °F - 50.0 °F 94% 29.65 in 3.1 mi Variable 2.3 mph - N/A   Light Drizzle
8:50 PM 50.0 °F - 50.0 °F 100% 29.68 in - NW 2.3 mph - N/A   Light Drizzle
9:20 PM 50.0 °F - 50.0 °F 100% 29.68 in 2.5 mi WSW 3.5 mph - N/A   Light Drizzle
9:50 PM 50.0 °F - 50.0 °F 100% 29.71 in 5.0 mi West 3.5 mph - N/A   Overcast
10:20 PM 50.0 °F - 50.0 °F 100% 29.71 in 5.6 mi West 3.5 mph - N/A   Mostly Cloudy
10:50 PM 50.0 °F - 50.0 °F 100% 29.74 in 5.0 mi WSW 2.3 mph - N/A   Overcast
11:20 PM 50.0 °F - 50.0 °F 100% 29.74 in 5.0 mi West 2.3 mph - N/A   Overcast
11:50 PM 50.0 °F - 50.0 °F 100% 29.74 in 2.5 mi West 2.3 mph - N/A Rain Light Rain